Pratt, KS

6:26 AM CDT on June 28, 2017 (GMT -0500)
Pratt Industrial

Weather History for KPTT - August, 2014

Change the Weather History Date:

Sunday, August 10, 2014

  Actual Average (KP28) Record (KP28)
Temperature  
Mean Temperature 73 °F -  
Max Temperature 84 °F 89 °F 115 °F (1936)
Min Temperature 62 °F 66 °F 51 °F (1902)
Cooling Degree Days 8    
Growing Degree Days 23 (Base 50)    
Moisture  
Dew Point 62 °F    
Average Humidity 73    
Maximum Humidity 100    
Minimum Humidity 45    
Precipitation  
Precipitation 0.30 in - - ()
Sea Level Pressure  
Sea Level Pressure 30.09 in    
Wind  
Wind Speed 8 mph (North)    
Max Wind Speed 23 mph    
Max Gust Speed 30 mph    
Visibility 10 miles    
Events Rain , Thunderstorm    
Averages and records for this station are not official NWS values.
T = Trace of Precipitation, MM = Missing Value Source: NWS Daily Summary

Daily Weather History Graph

Daily Weather History Graph

Search for Another Location

Airport or City:

Trip Planner

Search our weather history database for the weather conditions in past years. The results will help you decide how hot, cold, wet, or windy it might be!

Date:

Astronomy

Aug. 10, 2014 Rise Set
Actual Time 6:46 AM CDT 8:33 PM CDT
Civil Twilight 6:18 AM CDT 9:01 PM CDT
Nautical Twilight 5:43 AM CDT 9:36 PM CDT
Astronomical Twilight 5:07 AM CDT 10:12 PM CDT
Moon 8:23 PM CDT (8/10) 6:39 AM CDT (8/10)
Length of Visible Light 14h 43m
Length of Day
13h 47m
Full, 100% of the Moon is Illuminated
Aug 10
Full
Aug 10
Full
Aug 17
Last Quarter
Aug 25
New
Sep 2
First Quarter

Hourly Weather History & Observations

Time (CDT) Temp. Heat Index Dew Point Humidity Pressure Visibility Wind Dir Wind Speed Gust Speed Precip Events Conditions
12:15 AM 64.4 °F - 60.8 °F 88% 30.11 in 10.0 mi WNW 23.0 mph 29.9 mph 0.02 in Rain , Thunderstorm Light Thunderstorms and Rain
12:35 AM 62.6 °F - 60.8 °F 94% 30.09 in 5.0 mi NNW 11.5 mph 16.1 mph 0.11 in Rain , Thunderstorm Light Thunderstorms and Rain
12:55 AM 64.4 °F - 60.8 °F 88% 30.11 in 10.0 mi WNW 15.0 mph 20.7 mph 0.16 in Rain , Thunderstorm Rain
1:15 AM 64.4 °F - 60.8 °F 88% 30.12 in 7.0 mi WNW 12.7 mph - 0.04 in Rain , Thunderstorm Rain
1:35 AM 64.4 °F - 62.6 °F 94% 30.12 in 10.0 mi West 9.2 mph - 0.09 in Rain Rain
1:55 AM 64.4 °F - 62.6 °F 94% 30.11 in 10.0 mi SW 8.1 mph - 0.12 in Rain Rain
2:15 AM 64.4 °F - 62.6 °F 94% 30.03 in 10.0 mi Calm Calm - 0.02 in Rain Light Rain
2:35 AM 64.4 °F - 62.6 °F 94% 30.03 in 10.0 mi Calm Calm - 0.02 in   Clear
2:55 AM 64.4 °F - 62.6 °F 94% 30.03 in 10.0 mi Calm Calm - 0.02 in   Clear
3:15 AM 64.4 °F - 62.6 °F 94% 30.05 in 10.0 mi Calm Calm - N/A   Clear
3:35 AM 64.4 °F - 62.6 °F 94% 30.06 in 10.0 mi West 4.6 mph - N/A Thunderstorm Clear
3:55 AM 62.6 °F - 62.6 °F 100% 30.07 in 10.0 mi Calm Calm - N/A   Clear
4:15 AM 64.4 °F - 62.6 °F 94% 30.05 in 10.0 mi Calm Calm - N/A   Clear
4:35 AM 64.4 °F - 62.6 °F 94% 30.05 in 10.0 mi East 3.5 mph - N/A   Clear
4:55 AM 64.4 °F - 62.6 °F 94% 30.04 in 10.0 mi Calm Calm - N/A   Clear
5:15 AM 64.4 °F - 62.6 °F 94% 30.03 in 10.0 mi ENE 6.9 mph - N/A   Clear
5:35 AM 62.6 °F - 60.8 °F 94% 30.01 in 10.0 mi NE 4.6 mph - N/A   Clear
5:55 AM 62.6 °F - 60.8 °F 94% 30.00 in 10.0 mi ENE 3.5 mph - N/A   Clear
6:15 AM 62.6 °F - 60.8 °F 94% 30.01 in 10.0 mi Calm Calm - N/A   Clear
6:35 AM 62.6 °F - 60.8 °F 94% 30.02 in 10.0 mi SSW 6.9 mph - N/A   Clear
6:55 AM 62.6 °F - 60.8 °F 94% 30.06 in 10.0 mi NNW 3.5 mph - N/A   Scattered Clouds
7:15 AM 62.6 °F - 60.8 °F 94% 30.07 in 7.0 mi NNW 3.5 mph - N/A   Scattered Clouds
7:35 AM 62.6 °F - 60.8 °F 94% 30.08 in 7.0 mi SSW 4.6 mph - N/A   Clear
7:55 AM 62.6 °F - 62.6 °F 100% 30.09 in 7.0 mi WNW 3.5 mph - N/A   Scattered Clouds
8:15 AM 64.4 °F - 62.6 °F 94% 30.09 in 10.0 mi NNW 4.6 mph - N/A   Mostly Cloudy
8:35 AM 64.4 °F - 62.6 °F 94% 30.09 in 10.0 mi Calm Calm - N/A   Mostly Cloudy
8:55 AM 66.2 °F - 62.6 °F 88% 30.10 in 10.0 mi NNW 4.6 mph - N/A   Overcast
9:15 AM 68.0 °F - 62.6 °F 83% 30.09 in 10.0 mi NNW 5.8 mph - N/A   Overcast
9:35 AM 68.0 °F - 62.6 °F 83% 30.10 in 10.0 mi NW 6.9 mph - N/A   Overcast
9:55 AM 69.8 °F - 64.4 °F 83% 30.10 in 10.0 mi North 9.2 mph - N/A   Scattered Clouds
10:15 AM 71.6 °F - 64.4 °F 78% 30.10 in 10.0 mi North 12.7 mph 16.1 mph N/A   Mostly Cloudy
10:35 AM 73.4 °F - 64.4 °F 73% 30.11 in 10.0 mi North 11.5 mph - N/A   Mostly Cloudy
10:55 AM 73.4 °F - 64.4 °F 73% 30.12 in 10.0 mi North 12.7 mph - N/A   Mostly Cloudy
11:15 AM 73.4 °F - 62.6 °F 69% 30.12 in 10.0 mi North 9.2 mph - N/A   Mostly Cloudy
11:35 AM 75.2 °F - 62.6 °F 65% 30.12 in 10.0 mi North 9.2 mph - N/A   Mostly Cloudy
11:55 AM 77.0 °F - 62.6 °F 61% 30.12 in 10.0 mi North 8.1 mph - N/A   Scattered Clouds
12:15 PM 77.0 °F - 62.6 °F 61% 30.12 in 10.0 mi North 4.6 mph - N/A   Clear
12:35 PM 77.0 °F - 64.4 °F 65% 30.13 in 10.0 mi NE 6.9 mph - N/A   Clear
12:55 PM 78.8 °F - 64.4 °F 61% 30.13 in 10.0 mi NE 10.4 mph - N/A   Scattered Clouds
1:15 PM 78.8 °F - 62.6 °F 57% 30.13 in 10.0 mi NNE 8.1 mph - N/A   Scattered Clouds
1:35 PM 80.6 °F 81.8 °F 62.6 °F 54% 30.13 in 10.0 mi NNE 6.9 mph - N/A   Clear
1:55 PM 80.6 °F 82.3 °F 64.4 °F 58% 30.13 in 10.0 mi North 8.1 mph - N/A   Clear
2:15 PM 80.6 °F 81.8 °F 62.6 °F 54% 30.12 in 10.0 mi North 8.1 mph - N/A   Clear
2:35 PM 80.6 °F 81.8 °F 62.6 °F 54% 30.12 in 10.0 mi North 5.8 mph - N/A   Clear
2:55 PM 82.4 °F 83.4 °F 62.6 °F 51% 30.12 in 10.0 mi NNE 4.6 mph - N/A   Clear
3:15 PM 82.4 °F 83.4 °F 62.6 °F 51% 30.12 in 10.0 mi North 9.2 mph - N/A   Clear
3:35 PM 82.4 °F 83.4 °F 62.6 °F 51% 30.11 in 10.0 mi North 8.1 mph - N/A   Scattered Clouds
3:55 PM 84.2 °F 84.4 °F 60.8 °F 45% 30.11 in 10.0 mi NNE 9.2 mph - N/A   Scattered Clouds
4:15 PM 84.2 °F 84.4 °F 60.8 °F 45% 30.11 in 10.0 mi North 8.1 mph 16.1 mph N/A   Scattered Clouds
4:35 PM 82.4 °F 82.9 °F 60.8 °F 48% 30.11 in 10.0 mi North 8.1 mph - N/A   Scattered Clouds
4:55 PM 84.2 °F 85.0 °F 62.6 °F 48% 30.10 in 10.0 mi NNW 5.8 mph 16.1 mph N/A   Scattered Clouds
5:15 PM 82.4 °F 82.9 °F 60.8 °F 48% 30.09 in 10.0 mi North 8.1 mph - N/A   Clear
5:35 PM 84.2 °F 84.4 °F 60.8 °F 45% 30.08 in 10.0 mi NW 4.6 mph - N/A   Clear
5:55 PM 82.4 °F 83.4 °F 62.6 °F 51% 30.08 in 10.0 mi North 6.9 mph - N/A   Clear
6:35 PM 80.6 °F 81.5 °F 60.8 °F 51% 30.08 in 10.0 mi North 4.6 mph - N/A   Clear
6:55 PM 82.4 °F 82.9 °F 60.8 °F 48% 30.08 in 10.0 mi North 3.5 mph - N/A   Clear
7:15 PM 82.4 °F 83.4 °F 62.6 °F 51% 30.08 in 10.0 mi North 4.6 mph - N/A   Clear
7:35 PM 80.6 °F 81.8 °F 62.6 °F 54% 30.08 in 10.0 mi North 4.6 mph - N/A   Clear
7:55 PM 80.6 °F 81.8 °F 62.6 °F 54% 30.08 in 10.0 mi Calm Calm - N/A   Clear
8:15 PM 78.8 °F - 62.6 °F 57% 30.09 in 10.0 mi North 3.5 mph - N/A   Clear
8:35 PM 78.8 °F - 64.4 °F 61% 30.09 in 10.0 mi Calm Calm - N/A   Clear
8:55 PM 78.8 °F - 62.6 °F 57% 30.09 in 10.0 mi NE 3.5 mph - N/A   Clear
9:15 PM 78.8 °F - 62.6 °F 57% 30.10 in 10.0 mi NE 3.5 mph - N/A   Clear
9:35 PM 77.0 °F - 62.6 °F 61% 30.11 in 10.0 mi NE 3.5 mph - N/A   Clear
9:55 PM 77.0 °F - 64.4 °F 65% 30.12 in 10.0 mi Calm Calm - N/A   Clear
10:15 PM 77.0 °F - 62.6 °F 61% 30.12 in 10.0 mi Calm Calm - N/A   Clear
10:55 PM 71.6 °F - 64.4 °F 78% 30.13 in 10.0 mi Calm Calm - N/A   Clear
11:15 PM 73.4 °F - 64.4 °F 73% 30.13 in 10.0 mi Calm Calm - N/A   Clear
11:35 PM 71.6 °F - 64.4 °F 78% 30.14 in 10.0 mi Calm Calm - N/A   Clear
11:55 PM 69.8 °F - 64.4 °F 83% 30.16 in 10.0 mi Calm Calm - N/A   Clear